CW0005 Weather Reports


time (UTC)temp
F
wind
direction
speed
knots
gust
knots
rain 1hr
in
rain 24hr
in
rain mn
in
humidity
%
barometer
mb
20260902034510 80 135 0.0 0.0 0.00 0.00 0.00 70 1013.5
20260902033012 81 135 0.0 0.0 0.00 0.00 0.00 69 1013.4
20260902031517 81 135 0.0 0.0 0.00 0.00 0.00 69 1013.3
20260902030026 82 135 0.0 0.9 0.00 0.00 0.00 68 1013.1
20260902024527 82 135 0.0 0.9 0.00 0.00 0.00 68 1013.0
20260902023010 83 135 0.0 1.7 0.00 0.00 0.00 67 1013.0
20260902021521 83 135 0.0 0.9 0.00 0.00 0.00 66 1012.9
20260902020032 84 135 0.0 0.0 0.00 0.00 0.00 65 1012.8
20260902014540 85 135 0.0 1.7 0.00 0.00 0.00 64 1012.6
20260902013014 85 135 0.0 1.7 0.00 0.00 0.00 63 1012.4
20260902011511 86 135 0.0 0.9 0.00 0.00 0.00 62 1012.3
20260902010027 87 135 0.0 1.7 0.00 0.00 0.00 61 1012.3
20260902004531 88 135 0.0 0.9 0.00 0.00 0.00 60 1012.3
20260902003032 89 135 0.0 3.5 0.00 0.00 0.00 59 1012.2
20260902001527 90 135 0.0 0.9 0.00 0.00 0.00 58 1012.4
20260902000032 91 135 0.0 3.5 0.00 0.00 0.00 56 1012.4
20260901234536 92 135 0.0 0.0 0.00 0.00 0.00 54 1012.4
20260901233014 93 344 0.0 1.7 0.00 0.00 0.00 53 1012.4
20260901231533 94 319 0.0 4.3 0.00 0.00 0.00 50 1012.4
20260901230033 95 300 0.0 2.6 0.00 0.00 0.00 50 1012.4
20260901224518 96 332 0.9 2.6 0.00 0.00 0.00 47 1012.4
20260901223003 96 304 0.9 3.5 0.00 0.00 0.00 47 1012.7
20260901221505 96 169 0.9 4.3 0.00 0.00 0.00 46 1012.7
20260901220002 97 175 0.0 5.2 0.00 0.00 0.00 47 1012.7
20260901214503 97 47 0.0 3.5 0.00 0.00 0.00 51 1012.8
20260901213018 97 59 0.9 5.2 0.00 0.00 0.00 46 1013.0
20260901211502 97 26 0.9 7.8 0.00 0.00 0.00 49 1013.1
20260901210014 97 242 0.0 1.7 0.00 0.00 0.00 50 1013.2
20260901204510 96 338 0.0 3.5 0.00 0.00 0.00 47 1013.2
20260901203009 96 135 0.0 0.0 0.00 0.00 0.00 50 1013.2
20260901201516 96 135 0.0 5.2 0.00 0.00 0.00 51 1013.5
20260901200003 95 192 0.0 3.5 0.00 0.00 0.00 54 1013.6
20260901194509 95 135 0.0 1.7 0.00 0.00 0.00 50 1013.9
20260901193014 95 135 0.0 5.2 0.00 0.00 0.00 53 1013.9
20260901191522 95 135 0.0 4.3 0.00 0.00 0.00 52 1014.1
20260901190013 94 295 0.0 5.2 0.00 0.00 0.00 54 1014.3
20260901184512 94 314 0.0 2.6 0.00 0.00 0.00 54 1014.3
20260901183009 93 59 0.9 4.3 0.00 0.00 0.00 53 1014.5
20260901181519 92 45 0.0 0.0 0.00 0.00 0.00 54 1014.5
20260901180023 91 40 0.0 5.2 0.00 0.00 0.00 55 1014.7
20260901174529 90 337 1.7 7.0 0.00 0.00 0.00 55 1014.9
20260901173025 89 319 0.0 2.6 0.00 0.00 0.00 60 1015.0
20260901171511 88 260 0.9 4.3 0.00 0.00 0.00 60 1015.0
20260901170018 87 40 0.9 5.2 0.00 0.00 0.00 66 1015.1
20260901164513 86 348 0.0 2.6 0.00 0.00 0.00 65 1015.1
20260901163012 86 308 0.0 2.6 0.00 0.00 0.00 66 1015.1
20260901161537 84 314 0.9 2.6 0.00 0.00 0.00 69 1015.2
20260901160032 83 342 0.0 2.6 0.00 0.00 0.00 72 1015.1
20260901154524 82 29 0.9 3.5 0.00 0.00 0.00 76 1014.9
20260901153027 81 135 0.0 3.5 0.00 0.00 0.00 79 1015.1
20260901151525 79 135 0.0 0.0 0.00 0.00 0.00 83 1015.0
20260901150022 78 135 0.0 0.0 0.00 0.00 0.00 88 1014.9
20260901144518 76 135 0.0 0.0 0.00 0.00 0.00 92 1014.9
20260901143024 76 135 0.0 0.0 0.00 0.00 0.00 94 1015.0
20260901141527 75 135 0.0 0.0 0.00 0.00 0.00 94 1015.1
20260901140026 75 135 0.0 0.0 0.00 0.00 0.00 95 1015.2
20260901134543 75 135 0.0 0.0 0.00 0.00 0.00 95 1015.2
20260901133003 75 135 0.0 0.0 0.00 0.00 0.00 95 1015.2
20260901131504 75 135 0.0 0.0 0.00 0.00 0.00 95 1015.2
20260901130006 75 135 0.0 0.0 0.00 0.00 0.00 95 1015.1
20260901124511 75 135 0.0 0.0 0.00 0.00 0.00 95 1014.9
20260901123016 75 135 0.0 0.0 0.00 0.00 0.00 95 1014.9
20260901121513 74 135 0.0 0.0 0.00 0.00 0.00 94 1014.9
20260901120005 74 135 0.0 0.0 0.00 0.00 0.00 94 1014.9
20260901114508 74 135 0.0 0.0 0.00 0.00 0.00 94 1014.8
20260901113016 74 135 0.0 0.0 0.00 0.00 0.00 94 1014.7
20260901111524 74 135 0.0 0.0 0.00 0.00 0.00 94 1014.7
20260901110028 74 135 0.0 0.0 0.00 0.00 0.00 94 1014.7
20260901104525 74 135 0.0 0.0 0.00 0.00 0.00 93 1014.6
20260901103011 74 135 0.0 0.0 0.00 0.00 0.00 93 1014.8
20260901101516 74 135 0.0 0.0 0.00 0.00 0.00 93 1014.7
20260901100014 74 135 0.0 0.0 0.00 0.00 0.00 93 1014.6
20260901094511 74 135 0.0 0.0 0.00 0.00 0.00 93 1014.6
20260901093017 75 135 0.0 0.0 0.00 0.00 0.00 93 1014.5
20260901091516 75 135 0.0 0.0 0.00 0.00 0.00 92 1014.7
20260901090022 75 135 0.0 0.0 0.00 0.00 0.00 92 1014.7
20260901084531 75 135 0.0 0.0 0.00 0.00 0.00 92 1015.0
20260901083021 76 135 0.0 0.0 0.00 0.00 0.00 92 1014.9
20260901081512 76 135 0.0 0.0 0.00 0.00 0.00 91 1014.9
20260901080017 76 135 0.0 0.0 0.00 0.00 0.00 91 1014.8
20260901074512 76 135 0.0 0.0 0.00 0.00 0.00 91 1014.9
20260901073032 76 135 0.0 0.0 0.00 0.00 0.00 91 1014.7
20260901071524 76 135 0.0 0.0 0.00 0.00 0.00 91 1014.7
20260901070017 76 135 0.0 0.0 0.00 0.00 0.00 90 1014.9
20260901064527 77 135 0.0 0.0 0.00 0.00 0.00 91 1014.8
20260901063024 77 135 0.0 0.0 0.00 0.00 0.00 90 1015.0
20260901061524 77 135 0.0 0.0 0.00 0.00 0.00 90 1015.1
20260901060017 77 135 0.0 0.0 0.00 0.00 0.00 90 1015.2
20260901054517 77 135 0.0 0.0 0.00 0.00 0.00 89 1015.0
20260901053036 77 135 0.0 0.0 0.00 0.00 0.00 88 1015.0
20260901051527 77 135 0.0 0.0 0.00 0.00 0.00 88 1014.9
20260901050029 77 135 0.0 0.0 0.00 0.00 0.00 87 1014.7
20260901044531 78 135 0.0 0.0 0.00 0.00 0.00 86 1014.6
20260901043034 78 135 0.0 0.0 0.00 0.00 0.00 86 1014.4
20260901041523 78 135 0.0 0.0 0.00 0.00 0.00 86 1014.4
20260901040020 79 135 0.0 0.0 0.00 0.00 0.00 86 1014.3